Home   Weather   Utsunomiya   Past weeks

Flag for Japan Past Weather in Utsunomiya, Japan — Yesterday and Last 2 Weeks

Now
37 °F

Chilly.


Feels Like: 34 °F
Forecast: 28 / 47 °F
Wind: 3 mph from Northwest

Location: Mito

Current Time: Jan 20, 2017 at 7:09:10 pm

Latest Report: Jan 20, 2017 at 6:00 pm


Visibility: N/A

Pressure: 29.70 "Hg

Humidity: 94%

Dew Point: 35 °F

Location of UtsunomiyaLocation

Past Weather in Utsunomiya — Graph

°F

Utsunomiya Temperature Yesterday

Maximum temperature yesterday: 51 °F (at 2:00 pm)
Minimum temperature yesterday: 29 °F (at 5:00 am)
Average temperature yesterday: 38 °F

High & Low Weather Summary for the Past Weeks

 TemperatureHumidityPressure
High54 °F (Jan 10, 3:00 pm)96% (Jan 8, 10:00 pm)30.41 "Hg (Jan 8, 10:00 pm)
Low23 °F (Jan 16, 7:00 am)18% (Jan 15, 2:00 pm)29.47 "Hg (Jan 9, 3:00 am)
Average37 °F63%29.91 "Hg
* Reported Jan 5 5:00 pm — Jan 20 5:00 pm, Utsunomiya, Weather by CustomWeather, © 2017

Note: Actual official high and low records may vary slightly from our data, if they occured in-between our weather recording intervals... More about our weather records

Advertising

Utsunomiya Weather History for the Previous 24 Hours

Scroll right to see more
 ConditionsComfort  
Time TempWeatherWind HumidityBarometerVisibility
5:00 pm
Fri, Jan 20
38 °FChilly.2 mph94%29.70 "HgN/A
4:00 pm38 °FChilly.3 mph94%29.72 "HgN/A
3:00 pm37 °FLight rain. Overcast.5 mph92%29.73 "Hg4 mi
2:00 pm37 °FChilly.6 mph91%29.76 "HgN/A
1:00 pm36 °FChilly.5 mph92%29.80 "HgN/A
12:00 pm35 °FChilly.6 mph87%29.85 "HgN/A
11:00 am35 °FChilly.5 mph87%29.90 "HgN/A
10:00 am35 °FChilly.3 mph67%29.95 "HgN/A
9:00 am35 °FOvercast.2 mph58%29.95 "Hg9 mi
8:00 am33 °FChilly.6 mph67%29.95 "HgN/A
7:00 am33 °FChilly.5 mph66%29.97 "HgN/A
6:00 am34 °FChilly.3 mph61%29.99 "HgN/A
5:00 am32 °FChilly.5 mph71%30.01 "HgN/A
4:00 am31 °FChilly.3 mph73%30.01 "HgN/A
3:00 am32 °FOvercast.2 mph65%30.03 "Hg12 mi
2:00 am30 °FChilly.5 mph74%30.03 "HgN/A
1:00 am34 °FChilly.5 mph59%30.05 "HgN/A
12:00 am34 °FChilly.3 mph58%30.06 "HgN/A
11:00 pm
Thu, Jan 19
36 °FChilly.3 mph51%30.06 "HgN/A
10:00 pm35 °FChilly.3 mph55%30.06 "HgN/A
9:00 pm35 °FPassing clouds.3 mph57%30.08 "Hg19 mi
8:00 pm35 °FChilly.3 mph58%30.09 "HgN/A
7:00 pm37 °FChilly.6 mph53%30.09 "HgN/A
Weather by CustomWeather, © 2017

See weather overviewHow to use our weather pages